STARLINK-2179 (47761 NORAD) Tracking and Keplerian Element Data

This shows tracking and keplerian element data for the satellite.

Feedback or suggestion? Click here.




ElementValue
Catalog47761
NameSTARLINK-2179
Epoch Orbit1784
Epoch Day170.41840254
Epoch Year2021
RAAN32.1651
Inclination53.0572
Eccentricity0.0002022
Argument of Perigee94.5927
Mean Anonmoly265.5293
Mean Motion15.06400364
Decay Rate7.85E-06
L11 47761U 21017AR 21170.41840254 .00000785 00000-0 71603-4 0 9996
L22 47761 53.0572 32.1651 0002022 94.5927 265.5293 15.06400364 17840

Live tracking and technical data element details for STARLINK-2179 (NORAD 47761). STARLINK-2179 can be tracked NOW for your location showing map with azimuth and elevation plus other details from your city location.

Track the satellite on the map from your city or location and see movement details for azimuth, elevation, latitude, longitude, range, height, and movement on the map or in text.







IsCatalogInMostPopularTable: catalog: 47761, numindb: 39
Update: records affected: 1



GetName: 47761 STARLINK-2179

Hit Count: updated at: Mon, 21 Jun 2021 03:48:37 GMT